K0SNA Weather Reports


Display with metric or nautical units.
time (UTC)temp
F
wind
direction
speed
MPH
gust
MPH
rain 1hr
in
rain 24hr
in
rain mn
in
humidity
%
barometer
mb
20260504213157 57 332 3.0 15.0 0.00 0.00 0.00 39 1001.8
20260504212654 58 282 5.0 9.0 0.00 0.00 0.00 38 1001.9
20260504212150 58 6 9.0 13.0 0.00 0.00 0.00 38 1001.9
20260504211648 59 314 11.0 15.0 0.00 0.00 0.00 38 1001.9
20260504211144 58 5 6.0 15.0 0.00 0.00 0.00 39 1001.7
20260504210642 59 323 5.0 9.0 0.00 0.00 0.00 38 1001.7
20260504210138 60 5 9.0 10.0 0.00 0.00 0.00 38 1001.6
20260504205636 60 321 8.0 13.0 0.00 0.00 0.00 38 1001.7
20260504205133 58 327 6.0 10.0 0.00 0.00 0.00 38 1001.4
20260504204632 59 322 7.0 10.0 0.00 0.00 0.00 38 1001.6
20260504204130 59 283 5.0 14.0 0.00 0.00 0.00 38 1001.6
20260504203628 59 354 7.0 15.0 0.00 0.00 0.00 38 1001.1
20260504203125 60 6 6.0 14.0 0.00 0.00 0.00 38 1001.6
20260504202620 61 289 7.0 16.0 0.00 0.00 0.00 37 1001.4
20260504202117 60 294 9.0 11.0 0.00 0.00 0.00 37 1001.1
20260504201614 61 337 9.0 11.0 0.00 0.00 0.00 38 1001.0
20260504201112 60 347 3.0 14.0 0.00 0.00 0.00 40 1001.2
20260504200609 60 354 5.0 10.0 0.00 0.00 0.00 39 1001.2
20260504200105 60 281 6.0 11.0 0.00 0.00 0.00 40 1001.2
20260504195601 60 253 7.0 14.0 0.00 0.00 0.00 39 1001.1
20260504195057 60 310 11.0 14.0 0.00 0.00 0.00 38 1000.9
20260504194554 59 300 6.0 17.0 0.00 0.00 0.00 40 1001.0
20260504194050 60 220 9.0 13.0 0.00 0.00 0.00 38 1001.1
20260504193546 60 357 10.0 16.0 0.00 0.00 0.00 38 1001.0
20260504193045 60 285 8.0 14.0 0.00 0.00 0.00 40 1001.0
20260504192543 61 302 7.0 15.0 0.00 0.00 0.00 39 1000.6
20260504192041 60 355 9.0 13.0 0.00 0.00 0.00 38 1000.6
20260504191538 60 250 3.0 8.0 0.00 0.00 0.00 41 1000.7
20260504191034 60 309 6.0 14.0 0.00 0.00 0.00 40 1000.6
20260504190531 61 270 6.0 9.0 0.00 0.00 0.00 38 1000.7
20260504190027 60 281 3.0 7.0 0.00 0.00 0.00 40 1000.6
20260504185524 60 265 10.0 14.0 0.00 0.00 0.00 38 1000.4
20260504185021 60 296 5.0 13.0 0.00 0.00 0.00 38 1000.3
20260504184516 61 317 10.0 13.0 0.00 0.00 0.00 37 1000.1
20260504184012 61 226 6.0 11.0 0.00 0.00 0.00 37 1000.1
20260504183509 61 287 8.0 14.0 0.00 0.00 0.00 36 999.9
20260504183008 61 256 9.0 13.0 0.00 0.00 0.00 37 1000.1
20260504182504 61 300 5.0 7.0 0.00 0.00 0.00 37 1000.2
20260504182001 60 275 5.0 9.0 0.00 0.00 0.00 38 999.9
20260504181458 60 336 5.0 11.0 0.00 0.00 0.00 36 1000.2
20260504180956 60 325 5.0 8.0 0.00 0.00 0.00 39 999.8
20260504180455 61 339 6.0 8.0 0.00 0.00 0.00 37 999.7
20260504175953 60 318 5.0 11.0 0.00 0.00 0.00 38 999.7
20260504175450 60 314 6.0 17.0 0.00 0.00 0.00 40 999.6
20260504174947 62 316 9.0 17.0 0.00 0.00 0.00 38 999.5
20260504174445 61 308 8.0 16.0 0.00 0.00 0.00 38 999.5
20260504173942 61 317 6.0 14.0 0.00 0.00 0.00 39 999.5
20260504173438 62 247 6.0 9.0 0.00 0.00 0.00 40 999.4
20260504172936 62 288 7.0 11.0 0.00 0.00 0.00 40 999.5
20260504172432 62 31 4.0 9.0 0.00 0.00 0.00 40 999.3
20260504171928 62 323 5.0 10.0 0.00 0.00 0.00 40 999.5
20260504171426 62 312 5.0 8.0 0.00 0.00 0.00 40 999.2
20260504170923 62 336 6.0 7.0 0.00 0.00 0.00 40 999.2
20260504170419 61 287 7.0 10.0 0.00 0.00 0.00 39 999.2
20260504160338 61 312 9.0 13.0 0.00 0.00 0.00 41 999.2
20260504150802 61 305 5.0 7.0 0.00 0.00 0.00 41 998.9
20260504150259 61 317 5.0 9.0 0.00 0.00 0.00 42 998.9
20260504141229 61 297 9.0 14.0 0.00 0.00 0.00 41 998.7
20260504140726 60 337 5.0 8.0 0.00 0.00 0.00 44 998.6
20260504140221 60 349 5.0 10.0 0.00 0.00 0.00 43 998.5
20260504130650 60 257 4.0 7.0 0.00 0.00 0.00 48 997.2
20260504130146 60 268 6.0 8.0 0.00 0.00 0.00 48 997.5
20260504120110 59 243 6.0 10.0 0.00 0.00 0.00 46 997.0
20260504110537 59 294 9.0 16.0 0.00 0.00 0.00 43 996.3
20260504100448 57 239 2.0 6.0 0.00 0.00 0.00 46 996.8
20260504081841 57 208 3.0 5.0 0.00 0.00 0.00 45 998.6
20260504081338 56 213 2.0 3.0 0.00 0.00 0.00 45 998.7
20260504080834 56 210 1.0 2.0 0.00 0.00 0.00 46 998.9
20260504080331 56 219 2.0 3.0 0.00 0.00 0.00 45 998.9
20260504070258 55 208 2.0 5.0 0.00 0.00 0.00 47 999.7
20260504060219 51 203 0.0 0.0 0.00 0.00 0.00 55 1001.0
20260504050646 53 204 0.0 0.0 0.00 0.00 0.00 52 1002.0
20260504050143 52 205 0.0 0.0 0.00 0.00 0.00 53 1002.1
20260504045641 53 204 0.0 0.0 0.00 0.00 0.00 55 1002.2
20260504045141 53 204 0.0 0.0 0.00 0.00 0.00 51 1002.2
20260504044639 52 204 0.0 1.0 0.00 0.00 0.00 53 1002.4
20260504044135 53 204 1.0 1.0 0.00 0.00 0.00 52 1002.3
20260504043632 52 204 0.0 0.0 0.00 0.00 0.00 53 1002.4
20260504043130 52 204 0.0 0.0 0.00 0.00 0.00 55 1002.7
20260504042627 52 204 0.0 0.0 0.00 0.00 0.00 55 1002.7
20260504042123 52 204 0.0 0.0 0.00 0.00 0.00 54 1002.9
20260504041619 53 204 0.0 0.0 0.00 0.00 0.00 54 1002.9
20260504041116 53 204 0.0 0.0 0.00 0.00 0.00 52 1002.9
20260504040613 53 204 0.0 0.0 0.00 0.00 0.00 52 1003.1
20260504040109 53 204 0.0 0.0 0.00 0.00 0.00 54 1003.3
20260504035606 53 204 0.0 0.0 0.00 0.00 0.00 52 1003.3
20260504035103 53 204 0.0 0.0 0.00 0.00 0.00 53 1003.4
20260504034601 53 204 0.0 0.0 0.00 0.00 0.00 52 1003.5
20260504034057 54 204 0.0 0.0 0.00 0.00 0.00 51 1003.7
20260504033555 54 204 0.0 0.0 0.00 0.00 0.00 51 1003.7
20260504033052 54 204 0.0 0.0 0.00 0.00 0.00 50 1003.9
20260504032549 55 204 0.0 0.0 0.00 0.00 0.00 49 1003.7
20260504032046 55 204 0.0 0.0 0.00 0.00 0.00 48 1003.9
20260504031543 55 203 0.0 0.0 0.00 0.00 0.00 48 1004.1
20260504031039 55 203 0.0 0.0 0.00 0.00 0.00 47 1003.9
20260504030537 55 203 0.0 0.0 0.00 0.00 0.00 47 1003.8
20260504030032 56 203 0.0 0.0 0.00 0.00 0.00 46 1004.1
20260504025530 57 204 0.0 0.0 0.00 0.00 0.00 45 1003.9
20260504025026 57 204 0.0 0.0 0.00 0.00 0.00 43 1004.0
20260504024524 57 203 0.0 0.0 0.00 0.00 0.00 43 1003.9
20260504024020 57 203 0.0 0.0 0.00 0.00 0.00 42 1003.9
20260504023517 58 203 0.0 0.0 0.00 0.00 0.00 42 1004.0
20260504023013 58 203 0.0 0.0 0.00 0.00 0.00 42 1004.2
20260504022509 59 203 0.0 0.0 0.00 0.00 0.00 40 1004.1
20260504022006 59 203 0.0 0.0 0.00 0.00 0.00 40 1004.2
20260504021504 60 203 0.0 0.0 0.00 0.00 0.00 40 1004.1
20260504021000 61 203 0.0 0.0 0.00 0.00 0.00 37 1004.4
20260504020456 62 203 0.0 0.0 0.00 0.00 0.00 35 1004.2
20260504015953 63 203 0.0 0.0 0.00 0.00 0.00 33 1004.2
20260504015449 64 202 0.0 0.0 0.00 0.00 0.00 32 1004.0
20260504014945 64 203 0.0 2.0 0.00 0.00 0.00 32 1004.1
20260504014442 64 206 0.0 1.0 0.00 0.00 0.00 31 1004.1
20260504013938 64 206 1.0 2.0 0.00 0.00 0.00 31 1004.3
20260504013437 65 201 0.0 0.0 0.00 0.00 0.00 30 1004.3
20260504012933 65 203 0.0 2.0 0.00 0.00 0.00 30 1004.3
20260504012431 66 215 1.0 2.0 0.00 0.00 0.00 29 1004.4
20260504011929 66 226 2.0 3.0 0.00 0.00 0.00 29 1004.4
20260504011425 66 205 2.0 7.0 0.00 0.00 0.00 28 1004.5
20260504010921 67 217 3.0 6.0 0.00 0.00 0.00 29 1004.4
20260504010417 67 230 1.0 2.0 0.00 0.00 0.00 29 1004.4
20260504005913 67 211 2.0 2.0 0.00 0.00 0.00 28 1004.5
20260504005410 67 214 2.0 3.0 0.00 0.00 0.00 28 1004.6
20260504004908 67 213 3.0 3.0 0.00 0.00 0.00 28 1004.4
20260504004405 68 223 2.0 2.0 0.00 0.00 0.00 28 1004.7
20260504003902 68 257 3.0 5.0 0.00 0.00 0.00 28 1004.6
20260504003358 68 201 1.0 5.0 0.00 0.00 0.00 27 1004.3
20260504002855 68 216 1.0 2.0 0.00 0.00 0.00 27 1004.4
20260504002352 68 238 3.0 7.0 0.00 0.00 0.00 26 1004.6
20260504001850 68 209 1.0 2.0 0.00 0.00 0.00 28 1004.6
20260504001347 69 238 3.0 3.0 0.00 0.00 0.00 26 1004.6
20260504000843 69 235 5.0 7.0 0.00 0.00 0.00 26 1004.5
20260504000341 69 285 2.0 3.0 0.00 0.00 0.00 27 1004.6
20260503235838 69 266 4.0 6.0 0.00 0.00 0.00 27 1004.6
20260503235336 69 193 1.0 7.0 0.00 0.00 0.00 27 1004.5
20260503234833 69 262 6.0 8.0 0.00 0.00 0.00 26 1004.6
20260503234330 69 257 2.0 5.0 0.00 0.00 0.00 27 1004.5
20260503233828 70 226 2.0 2.0 0.00 0.00 0.00 27 1004.6
20260503233324 70 265 3.0 5.0 0.00 0.00 0.00 27 1004.7
20260503232820 69 252 1.0 2.0 0.00 0.00 0.00 26 1004.6
20260503232318 69 237 1.0 2.0 0.00 0.00 0.00 26 1004.8
20260503231816 69 272 5.0 7.0 0.00 0.00 0.00 25 1005.1
20260503231313 69 326 5.0 6.0 0.00 0.00 0.00 26 1005.0
20260503230808 69 283 3.0 6.0 0.00 0.00 0.00 26 1005.0
20260503230306 70 219 0.0 5.0 0.00 0.00 0.00 26 1005.1
20260503225803 69 291 3.0 7.0 0.00 0.00 0.00 26 1005.1
20260503225258 70 202 1.0 9.0 0.00 0.00 0.00 25 1005.1
20260503224755 69 317 3.0 3.0 0.00 0.00 0.00 26 1005.1
20260503224253 70 5 4.0 7.0 0.00 0.00 0.00 26 1005.2
20260503223750 70 250 3.0 5.0 0.00 0.00 0.00 25 1005.1
20260503223248 70 266 3.0 7.0 0.00 0.00 0.00 25 1005.2
20260503222744 71 354 3.0 7.0 0.00 0.00 0.00 25 1005.2
20260503222242 70 260 3.0 8.0 0.00 0.00 0.00 26 1005.2
20260503221740 71 271 3.0 6.0 0.00 0.00 0.00 25 1005.1
20260503221238 71 231 4.0 6.0 0.00 0.00 0.00 24 1005.3
20260503220734 71 281 3.0 5.0 0.00 0.00 0.00 26 1005.4
20260503220231 71 335 3.0 6.0 0.00 0.00 0.00 25 1005.2
20260503215727 70 157 2.0 5.0 0.00 0.00 0.00 26 1005.4
20260503215225 70 206 1.0 9.0 0.00 0.00 0.00 24 1005.7
20260503214723 70 321 4.0 6.0 0.00 0.00 0.00 26 1005.2
20260503214219 70 278 6.0 11.0 0.00 0.00 0.00 26 1005.6
20260503213717 71 288 3.0 5.0 0.00 0.00 0.00 26 1005.6